Regional Weather Roundup
Issued by NWS

Home | Current Version | Previous Version | Text Only | Print | Product List | Glossary Off
Versions: 1 2 3 4 5 6 7 8 9 10 11 12 13 14 15 16 17 18 19 20 21 22 23 24 25 26 27 28 29 30 31 32 33 34 35 36 37 38 39 40 41 42 43 44 45 46 47 48 49 50

000
ASUS43 KMKX 261011
RWRWI

WISCONSIN REGIONAL WEATHER ROUNDUP
NATIONAL WEATHER SERVICE MILWAUKEE/SULLIVAN WI
500 AM CDT TUE JUL 26 2016

NOTE: "FAIR" INDICATES FEW OR NO CLOUDS BELOW 12,000 FEET WITH NO
SIGNIFICANT WEATHER AND/OR OBSTRUCTIONS TO VISIBILITY.

WIZ001-002-006>008-014>016-023>028-261100-
NORTHWEST WISCONSIN

CITY           SKY/WX    TMP DP  RH WIND       PRES   REMARKS
SUPERIOR ARPT  CLOUDY    67  65  93 SW6       29.98S
ASHLAND        CLEAR     67  64  90 SW8       30.00S
HAYWARD        CLEAR     60  58  92 CALM      30.04S
SIREN          CLEAR     70  64  83 S3        30.03S
CUMBERLAND     CLEAR     59  59 100 S5        30.05F FOG
RICE LAKE      CLEAR     61  60  96 CALM      30.06S
CHETEK         CLEAR     62  62 100 CALM      30.05F
LADYSMITH      CLEAR     61  59  95 CALM      30.08R
EAU CLAIRE     CLEAR     65  64  97 CALM      30.04F
MENOMONIE      CLEAR     64  62  94 CALM      30.05F
NEW RICHMOND   CLEAR     64  64  98 S3        30.05S
OSCEOLA        CLEAR     65  65 100 CALM      30.06S
$$

WIZ003>005-009-010-017-018-261100-
NORTH CENTRAL WISCONSIN

CITY           SKY/WX    TMP DP  RH WIND       PRES   REMARKS
MANITOWISH WTR FOG       56  56 100 CALM      30.05S VSB 1/2
ARBOR VITAE    CLEAR     59  58  96 CALM      30.06R
WOODRUFF       CLEAR     59  58  96 CALM      30.06R
RHINELANDER    CLEAR     61  59  93 W6        30.07S
EAGLE RIVER    FOG       56  56 100 CALM      30.05S VSB 1/4
LAND O LAKES   CLEAR     53  53  99 CALM      30.06S
PHILLIPS       CLEAR     62  61  97 S3        30.06S
TOMAHAWK       CLEAR     55  54  97 CALM      30.07S
MEDFORD        CLEAR     61  61 100 CALM      30.08S
MERRILL        CLEAR     55  55 100 CALM      30.08R FOG
$$

WIZ029-030-035-036-043>047-261100-
CENTRAL WISCONSIN

CITY           SKY/WX    TMP DP  RH WIND       PRES   REMARKS
WAUSAU         CLEAR     62  61  96 CALM      30.05F
MOSINEE        CLEAR     59  59 100 CALM      30.08R
MARSHFIELD     CLEAR     64  60  87 W5        30.07S
STEVENS POINT  CLEAR     57  57  99 CALM      30.07S
WAUPACA        PTCLDY    64  64  99 CALM      30.06S
WAUTOMA        CLEAR     61  59  93 CALM      30.07R
WISC RAPIDS    CLEAR     61  59  93 SW3       30.08S FOG
CAMP DOUGLAS   CLEAR     54  54 100 SE1       30.07R FOG
$$

WIZ011>013-019>022-031-037>040-048>050-261100-
NORTHEAST WISCONSIN

CITY           SKY/WX    TMP DP  RH WIND       PRES   REMARKS
ANTIGO         CLEAR     56  56  99 CALM      30.08S
SHAWANO        CLEAR     61  59  93 CALM      30.05S
OCONTO         PTCLDY   N/A N/A N/A CALM      30.03S
STURGEON BAY   CLEAR     65  64  97 CALM      30.04R
GREEN BAY      CLEAR     61  61 100 CALM      30.04R
MANITOWOC      PTCLDY    66  60  81 MISG      30.04S
APPLETON       CLEAR     63  61  94 NW8       30.04S
CLINTONVILLE   PTCLDY    63  61  94 CALM      30.05S
OSHKOSH        CLEAR     65  61  87 W6        30.05R
$$

WIZ032>034-041-042-053>061-261100-
SOUTHWEST WISCONSIN

CITY           SKY/WX    TMP DP  RH WIND       PRES   REMARKS
LA CROSSE      PTCLDY    66  64  93 E3        30.06S
SPARTA         PTCLDY    56  56  99 CALM      30.08S
VIROQUA        PTCLDY    63  63 100 CALM      30.09S
BOSCOBEL       FOG       65  64  97 CALM      30.08R VSB 1/4
PRAIRIE DU CHI CLEAR     63  62  96 CALM      30.08R
PLATTEVILLE    CLEAR     63  63 100 N3        30.08S
$$

WIZ056-057-062-063-064-067-068-261100-
SOUTH CENTRAL WISCONSIN

CITY           SKY/WX    TMP DP  RH WIND       PRES   REMARKS
REEDSBURG      CLEAR     61  61 100 CALM      30.08R
BARABOO/DELLS  CLEAR     61  60  94 S3        30.08S
LONE ROCK      FOG       63  62  97 CALM      30.08S VSB 1/4
MINERAL POINT  CLEAR     68  63  83 CALM      30.09S
MADISON        CLEAR     63  62  97 CALM      30.07R FOG
MIDDLETON      CLEAR     63  63 100 CALM      30.08S
WATERTOWN      PTCLDY    62  62 100 CALM      30.07R
MONROE         CLEAR     68  61  77 N5        30.08R
JANESVILLE       N/A     64  63  94 CALM      30.07R FOG
$$

WIZ051-052-058>065-066-070>072-261100-
SOUTHEAST WISCONSIN

CITY           SKY/WX    TMP DP  RH WIND       PRES   REMARKS
MILWAUKEE      PTCLDY    69  62  78 NW3       30.05R
WAUKESHA       CLEAR     63  61  94 CALM      30.08R
MILWAUKEE/TIMM CLEAR     64  59  82 CALM      30.07R
RACINE         CLEAR     68  63  84 NW6       30.07R
BURLINGTON     CLEAR     61  61  99 CALM      30.07R FOG
KENOSHA        CLEAR     64  62  93 CALM      30.06R
FOND DU LAC    CLEAR     64  60  87 SW6       30.07R
SHEBOYGAN      PTCLDY    62  60  93 SW5       30.05R
WEST BEND      CLEAR     61  59  94 CALM      30.07R
JUNEAU         PTCLDY    62  61  98 CALM      30.08R
$$

LSZ147-162-261100-
LAKE SUPERIOR

STATION/POSITION TIME  TEMP    WIND        PRES    WAVE
                       AIR SEA DIR/SP/G            HT/PER
                 (UTC) (F)     (DEG/KT/KT) (MB)    (FT/S)
W MID LAKE BUOY  0950   63 60  250/  8/  8 1013.9F   0
DEVILS ISLAND    1000   68     240/ 10/ 12 1015.1R
SAXON HARBOR     0900   69     200/  7/ 11 1014.9F
$$

LMZ867-665-643>646-261100-
LAKE MICHIGAN

STATION/POSITION TIME  TEMP    WIND        PRES    WAVE
                       AIR SEA DIR/SP/G            HT/PER
                 (UTC) (F)     (DEG/KT/KT) (MB)    (FT/S)
CHAMBERS ISLAND  0900   67     240/  4/  6 1016.3
S GREEN BAY BUOY 0930   69 74  280/  2/  2   N/A
N MID LAKE BUOY  0950   69 69  220/  4/  4 1015.3R   1
NORTHPORT PIER   0900   67     240/  4/  6 1015.9R
SISTER BAY       0921   68        CALM       N/A
ALGOMA LAKESHORE 0913          320/  6/  8   N/A
KEWAUNEE LAKESHO 0900   66     300/  5/  6 1016.1R
SHEBOYGAN LAKESH 1000   71     280/  6/  7 1017.4R
PORT WASHINGTON  0940   70     300/  7/ 10 1017.9R
ATWATER BUOY     1000   66 59  320/  4/  4 1019.2R
MILWAUKEE LAKESH 0910   72     300/  3/  4   N/A
S MID LAKE BUOY  0950   73 73  260/  6/  6 1016.7R   0
KENOSHA   LAKESH 1000   70     290/  5/  6 1017.3R
$$

TC  - TEMPERATURE IN CELSIUS
VSB - VISIBILITY IN STATUTE MILES
WCI - WIND CHILL INDEX
HX  - HEAT INDEX





USA.gov is the U.S. government's official web portal to all federal, state and local government web resources and services.